EW2544 Weather Reports


Display with metric or nautical units.
time (UTC)temp
F
wind
direction
speed
MPH
gust
MPH
rain 1hr
in
rain 24hr
in
rain mn
in
humidity
%
barometer
mb
20260504100515 64 123 3.0 7.0 0.00 0.00 0.00 82 1012.3
20260504081515 61 302 1.0 3.0 0.00 0.00 0.00 86 1012.7
20260504080515 61 302 2.0 5.0 0.00 0.00 0.00 86 1012.7
20260504050517 60 99 7.0 10.0 0.00 0.00 0.00 91 1011.5
20260504045517 60 112 4.0 7.0 0.00 0.00 0.00 91 1011.6
20260504044517 60 105 6.0 9.0 0.00 0.00 0.00 91 1011.6
20260504043516 60 106 7.0 11.0 0.00 0.00 0.00 91 1011.5
20260504042517 59 104 7.0 12.0 0.00 0.00 0.00 91 1011.5
20260504041516 59 98 5.0 10.0 0.00 0.00 0.00 91 1011.5
20260504040517 59 113 7.0 14.0 0.00 0.00 0.00 91 1011.5
20260504035517 59 102 9.0 14.0 0.00 0.00 0.00 91 1011.5
20260504034517 59 103 10.0 16.0 0.00 0.00 0.00 91 1011.4
20260504033517 59 95 10.0 15.0 0.00 0.00 0.00 91 1011.4
20260504032516 59 111 8.0 13.0 0.00 0.00 0.00 91 1011.5
20260504031557 59 106 10.0 15.0 0.00 0.00 0.00 91 1011.4
20260504030517 59 109 11.0 17.0 0.00 0.00 0.00 90 1011.5
20260504025516 59 108 10.0 16.0 0.00 0.00 0.00 90 1011.6
20260504024537 59 103 11.0 17.0 0.00 0.00 0.00 90 1011.6
20260504023537 59 107 11.0 17.0 0.00 0.00 0.00 90 1011.7
20260504022516 59 101 11.0 19.0 0.00 0.00 0.00 89 1011.7
20260504021516 59 100 12.0 18.0 0.00 0.00 0.00 89 1011.7
20260504020516 59 100 12.0 20.0 0.00 0.00 0.00 89 1011.9
20260504015516 59 94 13.0 20.0 0.00 0.00 0.00 89 1011.8
20260504014516 60 91 12.0 18.0 0.00 0.00 0.00 88 1012.1
20260504013516 59 96 12.0 19.0 0.00 0.00 0.00 87 1011.9
20260504012536 59 95 13.0 19.0 0.00 0.00 0.00 87 1011.9
20260504011516 59 96 13.0 23.0 0.00 0.00 0.00 86 1011.9
20260504010516 59 94 14.0 24.0 0.00 0.00 0.00 86 1011.9
20260504005516 59 95 14.0 22.0 0.00 0.00 0.00 86 1011.9
20260504004516 59 95 15.0 22.0 0.00 0.00 0.00 86 1011.8
20260504003536 59 94 15.0 23.0 0.00 0.00 0.00 86 1011.9
20260504002516 59 96 13.0 21.0 0.00 0.00 0.00 86 1012.1
20260504001516 59 93 12.0 25.0 0.00 0.00 0.00 86 1012.2
20260504000516 59 94 15.0 22.0 0.00 0.00 0.00 86 1012.2
20260503235516 59 89 16.0 24.0 0.00 0.00 0.00 87 1012.1
20260503234516 59 90 15.0 25.0 0.00 0.00 0.00 87 1012.1
20260503233516 59 87 17.0 28.0 0.00 0.00 0.00 87 1012.2
20260503232516 59 92 14.0 22.0 0.00 0.00 0.00 87 1012.4
20260503231516 59 94 17.0 24.0 0.00 0.00 0.00 87 1012.5
20260503230516 60 90 18.0 28.0 0.00 0.00 0.00 87 1012.6
20260503225516 60 89 16.0 27.0 0.00 0.00 0.00 87 1012.7
20260503224536 60 87 16.0 26.0 0.00 0.00 0.00 88 1012.7
20260503223516 60 97 15.0 23.0 0.00 0.00 0.00 88 1012.8
20260503222516 60 95 16.0 24.0 0.00 0.00 0.00 88 1012.6
20260503221516 59 95 14.0 28.0 0.00 0.00 0.00 88 1012.5
20260503220516 59 95 15.0 25.0 0.00 0.00 0.00 88 1012.7
20260503215516 59 96 16.0 28.0 0.00 0.00 0.00 88 1012.7
20260503214516 59 96 17.0 27.0 0.00 0.00 0.00 88 1012.6
20260503213536 59 95 16.0 26.0 0.00 0.00 0.00 88 1012.6
20260503212517 60 93 16.0 27.0 0.00 0.00 0.00 88 1012.6
20260503211537 60 94 17.0 26.0 0.00 0.00 0.00 86 1012.6
20260503210516 60 93 19.0 32.0 0.00 0.00 0.00 86 1012.5
20260503205517 60 98 18.0 30.0 0.00 0.00 0.00 87 1012.5
20260503204517 60 94 18.0 29.0 0.00 0.00 0.00 87 1012.5
20260503203516 60 99 20.0 30.0 0.00 0.00 0.00 86 1012.4
20260503202516 60 97 21.0 32.0 0.00 0.00 0.00 86 1012.2
20260503201516 60 100 21.0 32.0 0.00 0.00 0.00 86 1012.1
20260503200516 61 102 20.0 35.0 0.00 0.00 0.00 85 1012.0
20260503195516 61 99 20.0 30.0 0.00 0.00 0.00 85 1011.9
20260503194537 61 97 20.0 30.0 0.00 0.00 0.00 85 1011.9
20260503193516 61 98 20.0 31.0 0.00 0.00 0.00 85 1011.9
20260503192516 61 105 20.0 30.0 0.00 0.00 0.00 84 1011.9
20260503191536 61 103 21.0 32.0 0.00 0.00 0.00 84 1011.8
20260503190516 61 105 20.0 32.0 0.00 0.00 0.00 84 1011.8
20260503185516 61 103 21.0 32.0 0.00 0.00 0.00 84 1011.6
20260503184516 61 101 21.0 32.0 0.00 0.00 0.00 83 1011.6
20260503183516 62 98 21.0 34.0 0.00 0.00 0.00 83 1011.5
20260503182516 61 100 22.0 35.0 0.00 0.00 0.00 83 1011.4
20260503181516 61 97 20.0 35.0 0.00 0.00 0.00 83 1011.4
20260503180516 62 95 22.0 33.0 0.00 0.00 0.00 82 1011.5
20260503175536 62 96 22.0 36.0 0.00 0.00 0.00 82 1011.5
20260503174516 62 97 22.0 31.0 0.00 0.00 0.00 81 1011.6
20260503173516 62 95 21.0 36.0 0.00 0.00 0.00 81 1011.7
20260503172516 62 97 23.0 35.0 0.00 0.00 0.00 80 1011.8
20260503171516 62 97 20.0 34.0 0.00 0.00 0.00 80 1011.8
20260503170516 62 98 19.0 32.0 0.00 0.00 0.00 78 1012.0
20260503150536 65 99 23.0 34.0 0.00 0.00 0.00 72 1012.6
20260503130515 68 98 26.0 38.0 0.00 0.00 0.00 70 1013.5
20260503110535 68 85 20.0 32.0 0.00 0.00 0.00 70 1014.7